Date,TemperatureHighF,TemperatureAvgF,TemperatureLowF,DewpointHighF,DewpointAvgF,DewpointLowF,HumidityHigh,HumidityAvg,HumidityLow,PressureMaxIn,PressureMinIn,WindSpeedMaxMPH,WindSpeedAvgMPH,GustSpeedMaxMPH,PrecipitationSumIn
2013-9-1,32.0,32.0,32.0,13.0,13.0,13.0,45,45,45,31.85,29.76,0,0,29,0.00
2013-9-2,61.9,48.6,32.0,49.0,32.4,13.0,69,54,45,30.04,29.82,8,4,29,0.00
2013-9-3,61.9,61.9,61.9,46.0,46.0,46.0,56,56,56,30.00,29.90,8,8,13,0.00
2013-9-4,61.9,61.9,61.9,46.0,46.0,46.0,56,56,56,30.04,29.99,8,8,13,0.00
2013-9-5,74.5,61.7,58.6,61.5,48.4,46.0,94,63,56,30.05,29.89,8,7,13,0.21
2013-9-6,69.4,62.9,58.1,64.5,60.2,56.4,96,91,77,30.07,29.93,5,1,8,0.18
2013-9-7,70.1,63.3,56.8,61.8,59.2,55.1,95,87,73,30.08,29.99,6,1,11,0.01
2013-9-8,73.5,61.9,54.0,63.3,57.3,52.6,96,86,66,30.09,29.99,6,1,9,0.01
2013-9-9,68.9,59.7,55.6,63.1,56.4,53.9,97,90,70,30.07,29.98,8,2,10,0.00
2013-9-10,74.1,59.0,50.9,61.4,54.9,50.1,98,87,59,30.01,29.88,7,2,10,0.00
2013-9-11,80.6,66.4,55.0,61.9,57.0,52.5,93,74,48,29.95,29.84,7,1,10,0.00
2013-9-12,80.6,63.1,54.9,62.1,56.5,52.8,97,80,49,30.00,29.82,60,2,60,0.00
2013-9-13,66.4,59.5,56.8,60.8,57.7,54.5,97,94,88,30.05,29.86,10,1,13,0.01
2013-9-14,65.5,57.4,52.2,60.8,55.8,51.1,98,94,82,29.87,29.73,6,1,8,0.00
2013-9-15,66.0,56.8,51.8,60.3,55.8,51.0,98,96,92,29.88,29.70,5,1,9,0.15
2013-9-16,64.0,59.5,56.1,61.3,56.4,50.0,97,90,76,29.91,29.75,10,2,17,0.15
2013-9-17,65.3,57.5,54.5,55.3,52.6,50.7,91,84,68,30.05,29.85,10,2,15,0.00
2013-9-18,70.2,60.0,52.3,54.8,51.3,47.5,91,74,47,30.04,29.89,10,2,16,0.05
2013-9-19,79.5,62.5,50.9,54.9,50.6,47.6,91,69,39,30.02,29.71,6,2,9,0.00
2013-9-20,70.3,60.7,49.1,57.4,54.3,47.4,97,81,57,29.67,29.55,8,2,13,0.02
2013-9-21,68.5,59.1,54.0,60.8,55.7,53.1,99,89,67,29.68,29.60,7,1,9,0.00
2013-9-22,60.8,57.9,55.6,56.3,54.6,51.1,96,89,75,29.67,29.47,9,2,20,0.04
2013-9-23,61.0,55.0,50.2,56.6,51.5,47.2,98,89,69,29.95,29.66,8,1,15,0.08
2013-9-24,63.9,54.3,50.4,55.1,50.4,48.2,99,88,62,29.95,29.82,8,1,9,0.11
2013-9-25,61.7,53.0,47.1,52.3,48.7,44.9,99,86,60,30.01,29.85,10,1,16,0.02
2013-9-26,64.0,52.3,43.9,55.1,47.7,43.1,97,85,60,30.11,29.90,7,1,8,0.00
2013-9-27,57.4,54.3,49.1,53.5,51.8,47.4,95,91,85,30.08,29.80,6,2,9,0.08
2013-9-28,61.3,55.5,51.3,58.0,53.5,49.9,96,93,85,29.80,29.25,10,3,17,0.43
2013-9-29,58.3,54.4,50.0,51.8,50.5,48.1,94,87,75,29.47,29.08,10,3,29,0.18
2013-9-30,58.6,52.2,48.6,55.2,48.8,46.0,94,88,79,29.86,29.31,8,1,14,0.09